IBE572 LFPO-LEMD

Flight info

Callsign IBE572
Flight time 1h 37m
Altitude 33000
Route AGOPA DCT ARKIP DCT ARMAL DCT ARTAX DCT BEBIX DCT LMG DCT UVELI DCT OSMOB DCT VAVIX DCT NETUK N857 BANEV
Aircraft A20N/M-SDE2E3FGHIRWXY/LB1

Departure

Time 2026-05-01 10:08
Airport Paris-Orly Airport (LFPO)

Arrival

Time 2026-05-01 11:45
Airport Adolfo Suárez Madrid–Barajas Airport (LEMD)
Time Latitude Longitude Altitude Speed Heading
2026-05-01 09:47 48.72637 2.36382 294 ft 0 kts 332°
2026-05-01 10:01 48.72650 2.36372 298 ft 1 kts 151°
2026-05-01 10:01 48.72634 2.36396 296 ft 4 kts 130°
2026-05-01 10:02 48.72639 2.36390 295 ft 1 kts 164°
2026-05-01 10:02 48.72643 2.36388 295 ft 1 kts 164°
2026-05-01 10:04 48.72640 2.36390 294 ft 2 kts 164°
2026-05-01 10:04 48.72621 2.36398 295 ft 6 kts 165°
2026-05-01 10:04 48.72556 2.36395 298 ft 12 kts 218°
2026-05-01 10:05 48.72515 2.36268 297 ft 13 kts 243°
2026-05-01 10:05 48.72434 2.36221 295 ft 13 kts 214°
2026-05-01 10:05 48.72393 2.36087 293 ft 16 kts 254°
2026-05-01 10:05 48.72361 2.35914 296 ft 18 kts 255°
2026-05-01 10:06 48.72326 2.35720 296 ft 16 kts 254°
2026-05-01 10:06 48.72256 2.35608 293 ft 12 kts 200°
2026-05-01 10:06 48.72164 2.35616 295 ft 15 kts 158°
2026-05-01 10:06 48.72071 2.35692 297 ft 13 kts 141°
2026-05-01 10:07 48.72029 2.35767 292 ft 10 kts 126°
2026-05-01 10:07 48.71983 2.35865 294 ft 13 kts 127°
2026-05-01 10:07 48.71968 2.35998 293 ft 15 kts 75°
2026-05-01 10:07 48.72034 2.36361 296 ft 75 kts 75°
2026-05-01 10:08 48.72559 2.39169 852 ft 164 kts 73°
2026-05-01 10:08 48.72869 2.40822 1734 ft 165 kts 73°
2026-05-01 10:08 48.73168 2.42525 2526 ft 176 kts 73°
2026-05-01 10:09 48.73524 2.44409 3180 ft 196 kts 72°
2026-05-01 10:09 48.73934 2.46478 3844 ft 215 kts 73°
2026-05-01 10:09 48.74263 2.48798 4497 ft 237 kts 86°
2026-05-01 10:09 48.74325 2.51424 5055 ft 261 kts 90°
2026-05-01 10:10 48.74344 2.54221 5971 ft 267 kts 91°
2026-05-01 10:10 48.74262 2.57063 6921 ft 273 kts 103°
2026-05-01 10:10 48.71999 2.61525 8826 ft 279 kts 155°
2026-05-01 10:11 48.70110 2.62223 9779 ft 283 kts 175°
2026-05-01 10:11 48.68137 2.62431 10727 ft 289 kts 176°
2026-05-01 10:11 48.66056 2.62456 11210 ft 311 kts 186°
2026-05-01 10:11 48.63925 2.61445 11619 ft 334 kts 207°
2026-05-01 10:12 48.62111 2.59167 12373 ft 345 kts 227°
2026-05-01 10:12 48.61092 2.57310 12955 ft 348 kts 229°
2026-05-01 10:12 48.57483 2.50676 14860 ft 357 kts 228°
2026-05-01 10:13 48.55888 2.47769 15664 ft 361 kts 227°
2026-05-01 10:13 48.54278 2.44844 16437 ft 365 kts 227°
2026-05-01 10:13 48.52649 2.41893 17177 ft 369 kts 227°
2026-05-01 10:14 48.49326 2.35890 18608 ft 376 kts 226°
2026-05-01 10:14 48.47640 2.32849 19271 ft 380 kts 226°
2026-05-01 10:14 48.45942 2.29792 19922 ft 385 kts 226°
2026-05-01 10:14 48.44215 2.26684 20598 ft 389 kts 226°
2026-05-01 10:15 48.42473 2.23553 21236 ft 392 kts 226°
2026-05-01 10:15 48.40712 2.20390 21828 ft 396 kts 226°
2026-05-01 10:15 48.38928 2.17191 22423 ft 400 kts 226°
2026-05-01 10:15 48.37131 2.13973 22993 ft 404 kts 226°
2026-05-01 10:16 48.35315 2.10726 23560 ft 408 kts 226°
2026-05-01 10:16 48.33483 2.07450 24116 ft 411 kts 226°
2026-05-01 10:16 48.29130 2.02054 25147 ft 405 kts 200°
2026-05-01 10:17 48.26465 2.00760 25636 ft 402 kts 186°
2026-05-01 10:17 48.20913 2.00589 26612 ft 402 kts 175°
2026-05-01 10:17 48.18109 2.00683 27071 ft 404 kts 175°
2026-05-01 10:18 48.12447 2.00853 27954 ft 409 kts 175°
2026-05-01 10:18 48.09592 2.00936 28372 ft 412 kts 175°
2026-05-01 10:18 48.06712 2.01030 28747 ft 414 kts 175°
2026-05-01 10:19 48.03870 2.01187 29143 ft 415 kts 174°
2026-05-01 10:19 48.00971 2.01375 29491 ft 418 kts 174°
2026-05-01 10:19 47.98058 2.01564 29843 ft 420 kts 174°
2026-05-01 10:20 47.92183 2.01928 30564 ft 424 kts 174°
2026-05-01 10:20 47.89229 2.02106 30920 ft 426 kts 174°
2026-05-01 10:20 47.86265 2.02283 31307 ft 427 kts 174°
2026-05-01 10:20 47.83295 2.02461 31717 ft 427 kts 174°
2026-05-01 10:21 47.80321 2.02636 32163 ft 426 kts 174°
2026-05-01 10:21 47.74420 2.02983 32952 ft 423 kts 175°
2026-05-01 10:21 47.71485 2.03155 33053 ft 421 kts 175°
2026-05-01 10:22 47.65633 2.03500 33234 ft 421 kts 175°
2026-05-01 10:23 47.56866 2.04009 33240 ft 421 kts 175°
2026-05-01 10:23 47.49063 2.04452 33241 ft 422 kts 175°
2026-05-01 10:24 47.37310 2.05124 33233 ft 423 kts 175°
2026-05-01 10:25 47.31421 2.04673 33229 ft 426 kts 186°
2026-05-01 10:25 47.25581 2.03170 33224 ft 427 kts 187°
2026-05-01 10:26 47.19714 2.01670 33225 ft 427 kts 187°
2026-05-01 10:27 47.07964 1.98713 33223 ft 430 kts 188°
2026-05-01 10:28 46.99138 1.96498 33226 ft 431 kts 189°
2026-05-01 10:28 46.90243 1.94272 33234 ft 433 kts 189°
2026-05-01 10:29 46.81315 1.92046 33244 ft 434 kts 189°
2026-05-01 10:30 46.69376 1.89078 33249 ft 436 kts 190°
2026-05-01 10:31 46.57400 1.86116 33244 ft 436 kts 191°
2026-05-01 10:32 46.48423 1.83905 33254 ft 436 kts 191°
2026-05-01 10:33 46.36498 1.80976 33263 ft 436 kts 191°
2026-05-01 10:34 46.27601 1.78337 33245 ft 433 kts 202°
2026-05-01 10:34 46.22371 1.74137 33244 ft 430 kts 219°
2026-05-01 10:35 46.15597 1.65660 33251 ft 430 kts 221°
2026-05-01 10:35 46.11071 1.60013 33251 ft 430 kts 221°
2026-05-01 10:36 46.04274 1.51569 33267 ft 430 kts 221°
2026-05-01 10:37 45.99733 1.45941 33262 ft 431 kts 221°
2026-05-01 10:37 45.95498 1.39881 33265 ft 430 kts 232°
2026-05-01 10:37 45.93755 1.36403 33267 ft 429 kts 238°
2026-05-01 10:38 45.90946 1.28837 33271 ft 430 kts 243°
2026-05-01 10:38 45.88242 1.21184 33261 ft 430 kts 243°
2026-05-01 10:39 45.85514 1.13534 33265 ft 430 kts 243°
2026-05-01 10:39 45.82665 1.05987 33267 ft 431 kts 237°
2026-05-01 10:40 45.78845 0.99359 33263 ft 433 kts 225°
2026-05-01 10:40 45.74241 0.93754 33267 ft 434 kts 221°
2026-05-01 10:41 45.69594 0.88203 33265 ft 435 kts 221°
2026-05-01 10:42 45.62620 0.79878 33261 ft 436 kts 221°
2026-05-01 10:42 45.57960 0.74335 33252 ft 436 kts 221°
2026-05-01 10:43 45.53293 0.68798 33249 ft 436 kts 221°
2026-05-01 10:43 45.48630 0.63276 33237 ft 436 kts 221°
2026-05-01 10:44 45.43962 0.57760 33241 ft 436 kts 221°
2026-05-01 10:44 45.39286 0.52247 33232 ft 436 kts 221°
2026-05-01 10:45 45.34602 0.46740 33231 ft 437 kts 221°
2026-05-01 10:45 45.29921 0.41245 33234 ft 437 kts 221°
2026-05-01 10:46 45.25265 0.35791 33240 ft 437 kts 221°
2026-05-01 10:46 45.20571 0.30309 33235 ft 437 kts 221°
2026-05-01 10:47 45.15834 0.24785 33238 ft 438 kts 221°
2026-05-01 10:47 45.11162 0.19350 33244 ft 438 kts 221°
2026-05-01 10:48 45.06449 0.13878 33241 ft 438 kts 221°
2026-05-01 10:48 45.01732 0.08414 33238 ft 438 kts 221°
2026-05-01 10:49 44.97010 0.02956 33235 ft 438 kts 221°
2026-05-01 10:49 44.92291 -0.02489 33221 ft 438 kts 220°
2026-05-01 10:50 44.87567 -0.07930 33216 ft 439 kts 220°
2026-05-01 10:50 44.82827 -0.13369 33222 ft 439 kts 219°
2026-05-01 10:51 44.78081 -0.18807 33220 ft 440 kts 219°
2026-05-01 10:51 44.73328 -0.24241 33224 ft 441 kts 219°
2026-05-01 10:52 44.68565 -0.29674 33227 ft 441 kts 219°
2026-05-01 10:52 44.63735 -0.34986 33219 ft 441 kts 215°
2026-05-01 10:53 44.58672 -0.39847 33218 ft 441 kts 215°
2026-05-01 10:53 44.53608 -0.44718 33215 ft 441 kts 215°
2026-05-01 10:54 44.48551 -0.49574 33216 ft 441 kts 215°
2026-05-01 10:54 44.43490 -0.54424 33215 ft 441 kts 214°
2026-05-01 10:55 44.38427 -0.59263 33214 ft 440 kts 214°
2026-05-01 10:55 44.33367 -0.64089 33213 ft 440 kts 214°
2026-05-01 10:56 44.28306 -0.68908 33204 ft 440 kts 214°
2026-05-01 10:56 44.23249 -0.73622 33201 ft 440 kts 213°
2026-05-01 10:57 44.18139 -0.78299 33198 ft 439 kts 213°
2026-05-01 10:57 44.13031 -0.82978 33197 ft 439 kts 213°
2026-05-01 10:58 44.07922 -0.87657 33201 ft 440 kts 213°
2026-05-01 10:58 44.02814 -0.92327 33203 ft 440 kts 213°
2026-05-01 10:59 43.97701 -0.96994 33200 ft 440 kts 213°
2026-05-01 10:59 43.92580 -1.01657 33200 ft 440 kts 213°
2026-05-01 11:00 43.87465 -1.06303 33197 ft 439 kts 213°
2026-05-01 11:00 43.82353 -1.10937 33189 ft 439 kts 213°
2026-05-01 11:01 43.77240 -1.15564 33188 ft 439 kts 213°
2026-05-01 11:01 43.72123 -1.20186 33185 ft 439 kts 213°
2026-05-01 11:02 43.67008 -1.24793 33178 ft 439 kts 213°
2026-05-01 11:02 43.61925 -1.29366 33188 ft 439 kts 213°
2026-05-01 11:03 43.56775 -1.33986 33188 ft 439 kts 213°
2026-05-01 11:03 43.51686 -1.38542 33185 ft 439 kts 213°
2026-05-01 11:04 43.46563 -1.43116 33188 ft 439 kts 213°
2026-05-01 11:04 43.41447 -1.47681 33182 ft 439 kts 213°
2026-05-01 11:05 43.36319 -1.52248 33183 ft 438 kts 213°
2026-05-01 11:05 43.31192 -1.56802 33182 ft 439 kts 213°
2026-05-01 11:06 43.25803 -1.60702 33181 ft 439 kts 200°
2026-05-01 11:06 43.19869 -1.62575 33187 ft 439 kts 187°
2026-05-01 11:07 43.10753 -1.64049 33191 ft 440 kts 187°
2026-05-01 11:07 43.04709 -1.65047 33192 ft 440 kts 188°
2026-05-01 11:08 42.98627 -1.66051 33196 ft 440 kts 188°
2026-05-01 11:09 42.89500 -1.67555 33205 ft 440 kts 188°
2026-05-01 11:09 42.83406 -1.68552 33209 ft 441 kts 188°
2026-05-01 11:10 42.75314 -1.70098 33211 ft 441 kts 194°
2026-05-01 11:10 42.69524 -1.72757 33210 ft 440 kts 205°
2026-05-01 11:11 42.64049 -1.76458 33214 ft 440 kts 207°
2026-05-01 11:11 42.58566 -1.80159 33216 ft 440 kts 207°
2026-05-01 11:12 42.53072 -1.83842 33218 ft 441 kts 207°
2026-05-01 11:12 42.47577 -1.87518 33225 ft 440 kts 207°
2026-05-01 11:13 42.42084 -1.91185 33223 ft 440 kts 207°
2026-05-01 11:13 42.36590 -1.94845 33220 ft 440 kts 207°
2026-05-01 11:14 42.31092 -1.98504 33219 ft 440 kts 207°
2026-05-01 11:14 42.25608 -2.02156 33214 ft 439 kts 207°
2026-05-01 11:15 42.20120 -2.05782 33214 ft 439 kts 207°
2026-05-01 11:15 42.14632 -2.09403 33211 ft 439 kts 207°
2026-05-01 11:16 42.09147 -2.13023 33210 ft 439 kts 207°
2026-05-01 11:16 42.03699 -2.16611 33206 ft 438 kts 207°
2026-05-01 11:17 41.98220 -2.20214 33207 ft 439 kts 207°
2026-05-01 11:17 41.92737 -2.23813 33207 ft 438 kts 207°
2026-05-01 11:18 41.87252 -2.27403 33208 ft 439 kts 207°
2026-05-01 11:18 41.81769 -2.30985 33206 ft 438 kts 207°
2026-05-01 11:19 41.76287 -2.34562 33197 ft 439 kts 207°
2026-05-01 11:19 41.70797 -2.38135 33203 ft 438 kts 207°
2026-05-01 11:20 41.65312 -2.41701 33208 ft 438 kts 207°
2026-05-01 11:20 41.59827 -2.45259 33209 ft 438 kts 207°
2026-05-01 11:21 41.54333 -2.48814 33150 ft 439 kts 207°
2026-05-01 11:21 41.51593 -2.50585 32711 ft 438 kts 207°
2026-05-01 11:21 41.48838 -2.52366 31880 ft 442 kts 207°
2026-05-01 11:22 41.46057 -2.54161 30868 ft 447 kts 207°
2026-05-01 11:22 41.43241 -2.55976 29843 ft 451 kts 207°
2026-05-01 11:22 41.40425 -2.57788 29204 ft 445 kts 207°
2026-05-01 11:22 41.37672 -2.59556 28731 ft 435 kts 207°
2026-05-01 11:23 41.34940 -2.61194 28128 ft 427 kts 201°
2026-05-01 11:23 41.32131 -2.62229 27553 ft 423 kts 192°
2026-05-01 11:23 41.29219 -2.62631 26976 ft 419 kts 183°
2026-05-01 11:23 41.26319 -2.62454 26391 ft 415 kts 178°
2026-05-01 11:24 41.23459 -2.62186 25810 ft 410 kts 178°
2026-05-01 11:24 41.20630 -2.61927 25228 ft 405 kts 178°
2026-05-01 11:24 41.15065 -2.61429 24078 ft 396 kts 178°
2026-05-01 11:25 41.12328 -2.61186 23503 ft 392 kts 178°
2026-05-01 11:25 41.06950 -2.60708 22376 ft 383 kts 178°
2026-05-01 11:25 41.04307 -2.60474 21815 ft 379 kts 178°
2026-05-01 11:26 41.01684 -2.60243 21262 ft 376 kts 178°
2026-05-01 11:26 40.96513 -2.59785 20155 ft 369 kts 178°
2026-05-01 11:26 40.93961 -2.59561 19613 ft 366 kts 177°
2026-05-01 11:27 40.91430 -2.59338 19061 ft 364 kts 177°
2026-05-01 11:27 40.88913 -2.59115 18516 ft 361 kts 177°
2026-05-01 11:27 40.86422 -2.58895 17974 ft 358 kts 178°
2026-05-01 11:27 40.83961 -2.59142 17438 ft 353 kts 195°
2026-05-01 11:28 40.81742 -2.60437 16904 ft 349 kts 214°
2026-05-01 11:28 40.79942 -2.62558 16384 ft 347 kts 225°
2026-05-01 11:28 40.78258 -2.64820 15844 ft 344 kts 225°
2026-05-01 11:29 40.74928 -2.69295 14929 ft 336 kts 225°
2026-05-01 11:29 40.73320 -2.71446 14795 ft 322 kts 225°
2026-05-01 11:29 40.70355 -2.75400 14488 ft 287 kts 225°
2026-05-01 11:30 40.68980 -2.77228 14387 ft 275 kts 225°
2026-05-01 11:30 40.67666 -2.78975 14136 ft 269 kts 225°
2026-05-01 11:30 40.66360 -2.80710 13892 ft 264 kts 224°
2026-05-01 11:30 40.64958 -2.82232 13671 ft 261 kts 214°
2026-05-01 11:31 40.63401 -2.83478 13562 ft 263 kts 212°
2026-05-01 11:31 40.61835 -2.84728 13443 ft 263 kts 212°
2026-05-01 11:31 40.60278 -2.85983 13328 ft 262 kts 212°
2026-05-01 11:31 40.58727 -2.87236 13154 ft 262 kts 212°
2026-05-01 11:32 40.57175 -2.88490 12796 ft 263 kts 212°
2026-05-01 11:32 40.55620 -2.89742 12496 ft 260 kts 212°
2026-05-01 11:32 40.54092 -2.90971 12270 ft 257 kts 212°
2026-05-01 11:32 40.52564 -2.92201 12031 ft 257 kts 212°
2026-05-01 11:33 40.51046 -2.93421 11809 ft 255 kts 212°
2026-05-01 11:33 40.49534 -2.94636 11574 ft 255 kts 212°
2026-05-01 11:33 40.48013 -2.95858 11339 ft 256 kts 212°
2026-05-01 11:33 40.46500 -2.97072 11112 ft 254 kts 212°
2026-05-01 11:34 40.44989 -2.98286 10877 ft 255 kts 211°
2026-05-01 11:34 40.43481 -2.99495 10642 ft 253 kts 211°
2026-05-01 11:34 40.41971 -3.00703 10413 ft 254 kts 211°
2026-05-01 11:34 40.40472 -3.01905 10182 ft 253 kts 211°
2026-05-01 11:35 40.38971 -3.03109 9951 ft 253 kts 211°
2026-05-01 11:35 40.37476 -3.04307 9726 ft 252 kts 211°
2026-05-01 11:35 40.35980 -3.05503 9501 ft 251 kts 210°
2026-05-01 11:35 40.34493 -3.06689 9282 ft 250 kts 210°
2026-05-01 11:36 40.33011 -3.07875 9057 ft 249 kts 210°
2026-05-01 11:36 40.31533 -3.09057 8821 ft 250 kts 210°
2026-05-01 11:36 40.30048 -3.10244 8600 ft 249 kts 210°
2026-05-01 11:36 40.28575 -3.11416 8384 ft 248 kts 210°
2026-05-01 11:37 40.27152 -3.12673 8154 ft 247 kts 223°
2026-05-01 11:37 40.26250 -3.14581 7930 ft 251 kts 252°
2026-05-01 11:37 40.26168 -3.16855 7657 ft 252 kts 277°
2026-05-01 11:37 40.26469 -3.19115 7385 ft 251 kts 279°
2026-05-01 11:38 40.26802 -3.21357 7123 ft 250 kts 279°
2026-05-01 11:38 40.27123 -3.23565 7033 ft 245 kts 279°
2026-05-01 11:38 40.27422 -3.25714 6928 ft 233 kts 279°
2026-05-01 11:38 40.27698 -3.27754 6831 ft 222 kts 278°
2026-05-01 11:39 40.27954 -3.29663 6739 ft 211 kts 278°
2026-05-01 11:39 40.28193 -3.31488 6647 ft 197 kts 279°
2026-05-01 11:39 40.28702 -3.33172 6149 ft 204 kts 303°
2026-05-01 11:39 40.29627 -3.34625 5734 ft 204 kts 310°
2026-05-01 11:40 40.30520 -3.35989 5420 ft 191 kts 310°
2026-05-01 11:40 40.31428 -3.37296 5354 ft 202 kts 316°
2026-05-01 11:40 40.32478 -3.38517 5262 ft 201 kts 321°
2026-05-01 11:40 40.33589 -3.39648 5174 ft 202 kts 323°
2026-05-01 11:41 40.34697 -3.40771 4986 ft 200 kts 323°
2026-05-01 11:41 40.35739 -3.41828 4756 ft 179 kts 323°
2026-05-01 11:41 40.36679 -3.42779 4536 ft 163 kts 323°
2026-05-01 11:41 40.37537 -3.43653 4354 ft 148 kts 323°
2026-05-01 11:42 40.38314 -3.44445 4164 ft 134 kts 324°
2026-05-01 11:42 40.39081 -3.45219 3983 ft 145 kts 323°
2026-05-01 11:42 40.39874 -3.46018 3771 ft 140 kts 322°
2026-05-01 11:42 40.40618 -3.46778 3576 ft 135 kts 323°
2026-05-01 11:43 40.41371 -3.47541 3411 ft 137 kts 323°
2026-05-01 11:43 40.42121 -3.48299 3240 ft 135 kts 323°
2026-05-01 11:43 40.42864 -3.49059 3056 ft 136 kts 322°
2026-05-01 11:44 40.44384 -3.50605 2682 ft 138 kts 321°
2026-05-01 11:44 40.45139 -3.51383 2503 ft 137 kts 323°
2026-05-01 11:44 40.45893 -3.52143 2316 ft 137 kts 323°
2026-05-01 11:44 40.46650 -3.52903 2138 ft 136 kts 322°
2026-05-01 11:45 40.47396 -3.53671 1951 ft 136 kts 323°
2026-05-01 11:45 40.48082 -3.54365 1932 ft 104 kts 322°
2026-05-01 11:45 40.48581 -3.54867 1944 ft 76 kts 320°
2026-05-01 11:45 40.48790 -3.55177 1951 ft 25 kts 293°
2026-05-01 11:46 40.48824 -3.55288 1951 ft 0 kts 292°
2026-05-01 11:46 40.48824 -3.55289 1951 ft 1 kts 292°
2026-05-01 11:46 40.48839 -3.55337 1951 ft 11 kts 292°
2026-05-01 11:47 40.48896 -3.55461 1952 ft 20 kts 313°
2026-05-01 11:47 40.48958 -3.55531 1953 ft 0 kts 324°
2026-05-01 11:47 40.48972 -3.55544 1956 ft 11 kts 324°
2026-05-01 11:47 40.49090 -3.55663 1957 ft 28 kts 322°
2026-05-01 11:48 40.49252 -3.55829 1961 ft 18 kts 322°
2026-05-01 11:48 40.49297 -3.55993 1959 ft 22 kts 269°
2026-05-01 11:48 40.49251 -3.56133 1958 ft 14 kts 186°
2026-05-01 11:48 40.49092 -3.56137 1958 ft 31 kts 180°
2026-05-01 11:49 40.48859 -3.56136 1959 ft 34 kts 179°
2026-05-01 11:49 40.48767 -3.56298 1963 ft 22 kts 267°
2026-05-01 11:49 40.48765 -3.56482 1971 ft 19 kts 270°
2026-05-01 11:49 40.48763 -3.56659 1977 ft 21 kts 266°
2026-05-01 11:50 40.48750 -3.56862 1981 ft 24 kts 264°
2026-05-01 11:50 40.48760 -3.57090 1981 ft 27 kts 267°
2026-05-01 11:50 40.48757 -3.57302 1985 ft 10 kts 269°
2026-05-01 11:50 40.48757 -3.57436 1988 ft 21 kts 270°
2026-05-01 11:51 40.48756 -3.57693 1992 ft 35 kts 273°
2026-05-01 11:51 40.48684 -3.57920 1998 ft 24 kts 189°
2026-05-01 11:51 40.48590 -3.58026 2002 ft 23 kts 246°
2026-05-01 11:51 40.48590 -3.58218 2007 ft 26 kts 268°
2026-05-01 11:52 40.48589 -3.58502 2017 ft 36 kts 274°
2026-05-01 11:52 40.48624 -3.58776 2025 ft 22 kts 336°
2026-05-01 11:52 40.48778 -3.58813 2025 ft 28 kts 358°
2026-05-01 11:52 40.49006 -3.58812 2022 ft 34 kts
2026-05-01 11:53 40.49211 -3.58825 2030 ft 14 kts 332°
2026-05-01 11:53 40.49230 -3.58893 2024 ft 5 kts 269°
2026-05-01 11:53 40.49229 -3.58953 2030 ft 9 kts 269°
2026-05-01 11:53 40.49229 -3.58971 2022 ft 0 kts 269°